Location: Gorze? G�rny
(49.8500°N, 19.5000°E)
Time: 04:08:43
(UTC+00:00)

Cosmos 1470 Rocket - Pass Details

Date: 13 May 2021
Orbit: 603 x 634 km, 82.5° (Epoch: 23 June)

Event Time Altitude Azimuth Distance (km) Brightness Sun altitude
Rises 19:41:33 0° 347° (NNW) 2,942 8.2 -11.2°
Reaches altitude 10° 19:43:48 10° 344° (NNW) 2,030 7.3 -11.5°
Maximum altitude 19:48:15 64° 264° (W) 708 4.0 -11.9°
Drops below altitude 10° 19:52:41 10° 183° (S) 2,013 5.8 -12.4°
Enters shadow 19:52:48 - 183° (S) 2,063 5.8 -12.4°
